Weather in Vartemyagi

Russia / Saint-Petersburg and Leningrad Oblast     60°10′21″N   30°19′14″E
temp.,
°C
wind,
m/s
gust,
m/s
humid.,
%
clouds,
%
prec.,
mm/h
press.,
hPa
HPBL,
m
25 january, tue
tue2500:000sw61396100 0.2 1014987
03:000wsw51298100 0.4 1013847
06:000wsw51197100 0.0 1012535
09:00−2w399792 0.0 1012353
12:00−3wnw311945 0.0 1013392
15:00−3nw410905 0.0 1014430
18:00−6nw310915 0.0 1016232
21:00−9nw28955 0.0 1018135
26 january, wed
wed2600:00−13nnw119730 0.0 101816
03:00−14wnw249980 0.0 101951
06:00−16w229969 0.0 101824
09:00−16w229866 0.0 101832
12:00−9sw2698100 0.0 1016126
15:00−6ssw2796100 0.0 1014231
18:00−6s3795100 0.0 1013208
21:00−7s31093100 0.0 1010272
27 january, thu
thu2700:00−7sse31191100 0.0 1008335
03:00−7sse41290100 0.0 1005387
06:00−7sse41195100 0.7 1002439
09:00−7sse41095100 1.4 1000392
12:00−6sse3796100 1.0 998295
15:00−4sse2597100 1.5 997239
18:00−4s2698100 0.3 996185
21:00−3s1299100 0.3 99577
28 january, fri
fri2800:00−4ene1199100 0.0 99419
03:00−4ene2598100 0.1 994129
06:00−4ne3797100 0.3 995220
09:00−5nne399698 0.3 997327
12:00−4nne489297 0.1 999601
15:00−6n499394 0.1 1001541
18:00−9nnw399459 0.0 1004268
21:00−10nnw3109558 0.1 1006234
29 january, sat
sat2900:00−11nnw4119575 0.0 1008267
03:00−10nw3109583 0.0 1009298
06:00−14nw259869 0.0 101076
09:00−17wnw249819 0.0 101142
12:00−12wsw269414 0.0 1010109
15:00−8sw2794100 0.0 1007173
18:00−8sse31092100 0.0 1002208
21:00−7sse51583100 0.0 997486